Location: Madden
(51.3728°N, 114.3297°W)
Time: 06:17:39
(UTC+00:00)

PCSat - Pass Details

Date: 14 December 2023
Orbit: 784 x 791 km, 67.0° (Epoch: 02 March)

Event Time Altitude Azimuth Distance (km) Brightness Sun altitude
Exits shadow 12:56:36 18° 350° (N) 1,853 11.3 -23.3°
Drops below altitude 10° 12:59:45 10° 26° (NNE) 2,364 12.2 -22.8°
Sets 13:02:57 0° 44° (NE) 3,297 13.3 -22.3°
